User: anonymous   Login
Location: Strawberry
(45.6646°N, 111.9596°W)
Time: 22:02:55
(UTC+00:00)
Language:

COSMOS 1867 COOLANT - Orbit

View from above orbital plane
View from above orbital plane
View from above satellite
View from above satellite

Ground track
Ground track

The orbit data is extracted from the following two-line orbital elements,

1 39659U 87060W   24147.92212334  .00000564  00000-0  24204-3 0  9997
2 39659  65.0102 317.9632 0021572 275.7225  84.1401 14.32960649528991
Epoch (UTC): 26 May 2024 22:07:51
Eccentricity: 0.0021572
inclination: 65.0102°
perigee height: 766 km
apogee height: 797 km
right ascension of ascending node: 317.9632°
argument of perigee: 275.7225°
revolutions per day: 14.32960649
mean anomaly at epoch: 84.1401°
orbit number at epoch: 52899

The dashed part of the orbit path shows where the satellite is in the earth's shadow,  

DLR